Weather History for Charlotte, NC

Change the Weather History Date:

Sunday, March 31, 2013

  Actual Average Record
Temperature  
Mean Temperature 61 °F 55 °F  
Max Temperature 71 °F 68 °F 86 °F (1986)
Min Temperature 51 °F 43 °F 21 °F (1964)
Degree Days  
Heating Degree Days 4 10  
Month to date heating degree days 581 434  
Since 1 July heating degree days 2986 3132  
Cooling Degree Days 0 0  
Month to date cooling degree days 3 5  
Year to date cooling degree days 3 5  
Growing Degree Days 11 (Base 50)    
Moisture  
Dew Point 51 °F    
Average Humidity 75    
Maximum Humidity 96    
Minimum Humidity 53    
Precipitation  
Precipitation 0.28 in 0.12 in 2.21 in (1973)
Month to date precipitation 3.44 4.01  
Year to date precipitation 11.19 10.74  
Snow  
Snow 0.00 in 0.00 in 1.90 in (1915)
Month to date snowfall T 0.6  
Since 1 July snowfall 2.7 4.3  
Snow Depth 0.00 in    
Sea Level Pressure  
Sea Level Pressure 29.91 in    
Wind  
Wind Speed 9 mph (SSW)    
Max Wind Speed 22 mph    
Max Gust Speed 30 mph    
Visibility 8 miles    
Events Rain    
T = Trace of Precipitation, MM = Missing Value Source: NWS Daily Summary

Daily Weather History Graph

Daily Weather History Graph

Search for Another Location

Airport:

Trip Planner

Search our weather history database for the weather conditions in past years. The results will help you decide how hot, cold, wet, or windy it might be!

Date:

Astronomy

Mar. 31, 2013 Rise Set
Actual Time 7:11 AM EDT 7:44 PM EDT
Civil Twilight 6:46 AM EDT 8:10 PM EDT
Nautical Twilight 6:16 AM EDT 8:40 PM EDT
Astronomical Twilight 5:45 AM EDT 9:11 PM EDT
Moon No Moon Rise 10:07 AM EDT (3/31)
Length of Visible Light 13h 24m
Length of Day
12h 33m
Waning Gibbous, 78% of the Moon is Illuminated
Mar 31
Waning Gibbous
Apr 3
Last Quarter
Apr 10
New
Apr 18
First Quarter
Apr 25
Full

Hourly Weather History & Observations

Time (EDT) Temp. Dew Point Humidity Pressure Visibility Wind Dir Wind Speed Gust Speed Precip Events Conditions
12:52 AM 55.9 °F 46.0 °F 69% 30.04 in 10.0 mi SE 13.8 mph - N/A   Overcast
1:52 AM 55.0 °F 46.0 °F 72% 30.02 in 10.0 mi SE 11.5 mph - N/A   Overcast
2:52 AM 52.0 °F 48.9 °F 89% 30.02 in 5.0 mi SSE 5.8 mph - 0.02 in Rain Rain
3:52 AM 52.0 °F 50.0 °F 93% 29.97 in 3.0 mi ESE 9.2 mph - 0.11 in Rain Rain
4:20 AM 51.8 °F 50.0 °F 94% 29.98 in 4.0 mi SE 4.6 mph - 0.04 in Rain Light Rain
4:27 AM 51.8 °F 50.0 °F 94% 29.97 in 4.0 mi Calm Calm - 0.05 in Rain Light Rain
4:38 AM 51.8 °F 50.0 °F 94% 29.98 in 5.0 mi Calm Calm - 0.05 in Rain Light Rain
4:52 AM 51.1 °F 50.0 °F 96% 29.96 in 4.0 mi SSE 6.9 mph - 0.06 in Rain Light Rain
5:31 AM 51.8 °F 50.0 °F 94% 29.96 in 4.0 mi SSW 3.5 mph - 0.03 in Rain Light Rain
5:52 AM 51.1 °F 50.0 °F 96% 29.95 in 3.0 mi SSE 6.9 mph - 0.04 in Rain Light Rain
6:52 AM 51.1 °F 50.0 °F 96% 29.94 in 3.0 mi South 6.9 mph - 0.04 in Rain Light Rain
7:52 AM 51.1 °F 50.0 °F 96% 29.93 in 5.0 mi South 5.8 mph - 0.00 in   Overcast
8:52 AM 54.0 °F 52.0 °F 93% 29.93 in 8.0 mi SSW 6.9 mph - N/A   Mostly Cloudy
9:42 AM 55.4 °F 53.6 °F 94% 29.93 in 8.0 mi SW 9.2 mph - N/A   Overcast
9:52 AM 57.0 °F 54.0 °F 89% 29.92 in 8.0 mi SW 5.8 mph - N/A   Overcast
10:03 AM 57.2 °F 53.6 °F 88% 29.93 in 8.0 mi SW 11.5 mph 18.4 mph N/A   Overcast
10:52 AM 57.9 °F 54.0 °F 87% 29.91 in 9.0 mi WSW 9.2 mph - N/A   Overcast
11:52 AM 60.1 °F 55.0 °F 83% 29.92 in 10.0 mi WSW 8.1 mph - N/A   Overcast
12:52 PM 64.0 °F 55.0 °F 73% 29.90 in 10.0 mi SW 11.5 mph - N/A   Mostly Cloudy
1:52 PM 68.0 °F 54.0 °F 61% 29.87 in 10.0 mi SW 11.5 mph - N/A   Mostly Cloudy
2:52 PM 68.0 °F 52.0 °F 56% 29.85 in 10.0 mi SSW 17.3 mph 21.9 mph N/A   Overcast
3:52 PM 68.0 °F 51.1 °F 55% 29.84 in 10.0 mi SW 11.5 mph 21.9 mph 0.00 in Rain Light Rain
4:52 PM 71.1 °F 52.0 °F 51% 29.81 in 10.0 mi SSW 12.7 mph 21.9 mph 0.01 in   Overcast
5:52 PM 68.0 °F 50.0 °F 52% 29.82 in 10.0 mi SW 13.8 mph 21.9 mph N/A   Overcast
6:52 PM 64.9 °F 50.0 °F 58% 29.84 in 10.0 mi SW 12.7 mph 25.3 mph 0.00 in Rain Light Rain
7:52 PM 64.0 °F 51.1 °F 63% 29.84 in 10.0 mi SW 6.9 mph - 0.00 in   Overcast
8:52 PM 61.0 °F 51.1 °F 70% 29.84 in 10.0 mi SW 3.5 mph - N/A   Mostly Cloudy
9:52 PM 57.9 °F 52.0 °F 81% 29.85 in 10.0 mi SSW 5.8 mph - N/A   Mostly Cloudy
10:52 PM 59.0 °F 54.0 °F 83% 29.85 in 10.0 mi SW 5.8 mph - N/A   Mostly Cloudy
11:52 PM 57.9 °F 54.0 °F 87% 29.85 in 10.0 mi SSW 4.6 mph - N/A   Overcast